Time,TemperatureF,DewpointF,PressureIn,WindDirection,WindDirectionDegrees,WindSpeedMPH,WindSpeedGustMPH,Humidity,HourlyPrecipIn,Conditions,Clouds,dailyrainin,SoftwareType,DateUTC
2013-09-16 00:02:00,56.5,53.6,30.15,North,349,0.0,5.0,90,0.00,,---,0.00,VWS V14.01,2013-09-16 05:02:00,
2013-09-16 00:07:00,56.5,53.6,30.15,North,3,5.0,5.0,90,0.00,,---,0.00,VWS V14.01,2013-09-16 05:07:00,
2013-09-16 00:12:00,56.5,53.6,30.15,NNE,16,4.0,5.0,90,0.00,,---,0.00,VWS V14.01,2013-09-16 05:12:00,
2013-09-16 00:17:00,56.5,53.6,30.15,North,0,2.0,2.0,90,0.00,,---,0.00,VWS V14.01,2013-09-16 05:17:00,
2013-09-16 00:22:00,56.5,53.6,30.15,NNW,340,5.0,5.0,90,0.00,,---,0.00,VWS V14.01,2013-09-16 05:22:00,
2013-09-16 00:27:00,56.5,53.6,30.16,NNW,340,5.0,5.0,90,0.00,,---,0.00,VWS V14.01,2013-09-16 05:27:00,
2013-09-16 00:32:00,56.5,53.6,30.16,NNW,340,5.0,5.0,90,0.00,,---,0.00,VWS V14.01,2013-09-16 05:32:00,
2013-09-16 00:37:00,56.5,53.6,30.16,NNW,340,5.0,5.0,90,0.00,,---,0.00,VWS V14.01,2013-09-16 05:37:00,
2013-09-16 00:42:00,56.5,53.6,30.16,NNW,340,5.0,5.0,90,0.00,,---,0.00,VWS V14.01,2013-09-16 05:42:00,
2013-09-16 00:47:00,56.5,53.6,30.16,NNW,340,5.0,5.0,90,0.00,,---,0.00,VWS V14.01,2013-09-16 05:47:00,
2013-09-16 00:52:00,56.5,53.6,30.16,NNW,340,5.0,5.0,90,0.00,,---,0.00,VWS V14.01,2013-09-16 05:52:00,
2013-09-16 00:57:00,56.5,53.6,30.16,NNW,340,5.0,5.0,90,0.00,,---,0.00,VWS V14.01,2013-09-16 05:57:00,
2013-09-16 01:02:00,56.5,53.6,30.16,NNW,340,5.0,5.0,90,0.00,,---,0.00,VWS V14.01,2013-09-16 06:02:00,
2013-09-16 01:07:00,56.5,53.6,30.16,NNW,340,5.0,5.0,90,0.00,,---,0.00,VWS V14.01,2013-09-16 06:07:00,
2013-09-16 01:12:00,56.5,53.6,30.16,NNW,340,5.0,5.0,90,0.00,,---,0.00,VWS V14.01,2013-09-16 06:12:00,
2013-09-16 01:17:00,56.5,53.6,30.16,NNW,340,5.0,5.0,90,0.00,,---,0.00,VWS V14.01,2013-09-16 06:17:00,
2013-09-16 01:22:00,56.5,53.6,30.16,NNW,340,5.0,5.0,90,0.00,,---,0.00,VWS V14.01,2013-09-16 06:22:00,
2013-09-16 01:27:00,56.5,53.6,30.17,NNW,340,5.0,5.0,90,0.00,,---,0.00,VWS V14.01,2013-09-16 06:27:00,
2013-09-16 01:32:00,56.5,53.6,30.17,NNW,340,5.0,5.0,90,0.00,,---,0.00,VWS V14.01,2013-09-16 06:32:00,
2013-09-16 01:37:00,56.5,53.6,30.17,NNW,340,5.0,5.0,90,0.00,,---,0.00,VWS V14.01,2013-09-16 06:37:00,
2013-09-16 01:42:00,56.5,53.6,30.17,NNW,340,5.0,5.0,90,0.00,,---,0.00,VWS V14.01,2013-09-16 06:42:00,
2013-09-16 01:47:00,56.5,53.6,30.17,NNW,340,5.0,5.0,90,0.00,,---,0.00,VWS V14.01,2013-09-16 06:47:00,
2013-09-16 01:52:00,56.5,53.6,30.17,NNW,340,5.0,5.0,90,0.00,,---,0.00,VWS V14.01,2013-09-16 06:52:00,
2013-09-16 01:57:00,56.5,53.6,30.17,NNW,340,5.0,5.0,90,0.00,,---,0.00,VWS V14.01,2013-09-16 06:57:00,
2013-09-16 02:02:00,56.5,53.6,30.17,NNW,340,5.0,5.0,90,0.00,,---,0.00,VWS V14.01,2013-09-16 07:02:00,
2013-09-16 02:07:00,56.5,53.6,30.17,NNW,340,5.0,5.0,90,0.00,,---,0.00,VWS V14.01,2013-09-16 07:07:00,
2013-09-16 02:12:00,56.5,55.1,30.17,NNE,13,0.0,1.0,95,0.00,,---,0.00,VWS V14.01,2013-09-16 07:12:00,
2013-09-16 02:17:00,56.5,55.1,30.17,NNW,337,2.0,2.0,95,0.00,,---,0.00,VWS V14.01,2013-09-16 07:17:00,
2013-09-16 02:22:00,53.1,51.7,30.17,North,0,2.0,2.0,95,0.00,,---,0.00,VWS V14.01,2013-09-16 07:22:00,
2013-09-16 02:27:00,53.1,51.7,30.18,North,349,1.0,3.0,95,0.00,,---,0.00,VWS V14.01,2013-09-16 07:27:00,
2013-09-16 02:32:00,53.1,52.0,30.18,North,352,2.0,2.0,96,0.00,,---,0.00,VWS V14.01,2013-09-16 07:32:00,
2013-09-16 02:37:00,53.2,52.1,30.18,North,6,0.0,1.0,96,0.00,,---,0.00,VWS V14.01,2013-09-16 07:37:00,
2013-09-16 02:42:00,53.3,52.2,30.18,NNE,14,5.0,5.0,96,0.00,,---,0.00,VWS V14.01,2013-09-16 07:42:00,
2013-09-16 02:47:00,53.3,52.2,30.18,North,357,3.0,3.0,96,0.00,,---,0.00,VWS V14.01,2013-09-16 07:47:00,
2013-09-16 02:52:00,53.5,52.4,30.18,NE,34,3.0,3.0,96,0.00,,---,0.00,VWS V14.01,2013-09-16 07:52:00,
2013-09-16 02:57:00,53.8,52.7,30.18,North,0,5.0,5.0,96,0.00,,---,0.00,VWS V14.01,2013-09-16 07:57:00,
2013-09-16 03:02:00,53.9,52.8,30.18,North,0,5.0,5.0,96,0.00,,---,0.00,VWS V14.01,2013-09-16 08:02:00,
2013-09-16 03:07:00,54.2,53.1,30.18,NNE,23,3.0,3.0,96,0.00,,---,0.00,VWS V14.01,2013-09-16 08:07:00,
2013-09-16 03:12:00,54.2,53.4,30.18,NNE,25,7.0,7.0,97,0.00,,---,0.00,VWS V14.01,2013-09-16 08:12:00,
2013-09-16 03:17:00,54.4,53.6,30.18,NE,49,7.0,7.0,97,0.00,,---,0.00,VWS V14.01,2013-09-16 08:17:00,
2013-09-16 03:22:00,54.4,53.6,30.18,NNE,23,1.0,1.0,97,0.00,,---,0.00,VWS V14.01,2013-09-16 08:22:00,
2013-09-16 03:27:00,54.4,53.6,30.19,NE,40,4.0,4.0,97,0.00,,---,0.00,VWS V14.01,2013-09-16 08:27:00,
2013-09-16 03:32:00,54.7,53.9,30.19,NNE,20,2.0,3.0,97,0.00,,---,0.00,VWS V14.01,2013-09-16 08:32:00,
2013-09-16 03:37:00,55.0,54.2,30.19,NE,34,5.0,5.0,97,0.00,,---,0.00,VWS V14.01,2013-09-16 08:37:00,
2013-09-16 03:42:00,55.1,54.3,30.19,North,7,2.0,3.0,97,0.00,,---,0.00,VWS V14.01,2013-09-16 08:42:00,
2013-09-16 03:47:00,55.1,54.3,30.19,North,4,1.0,1.0,97,0.00,,---,0.00,VWS V14.01,2013-09-16 08:47:00,
2013-09-16 03:52:00,55.1,54.3,30.19,NE,35,3.0,3.0,97,0.00,,---,0.00,VWS V14.01,2013-09-16 08:52:00,
2013-09-16 03:57:00,55.1,54.3,30.20,North,0,2.0,2.0,97,0.00,,---,0.00,VWS V14.01,2013-09-16 08:57:00,
2013-09-16 04:02:00,55.1,54.3,30.20,North,353,6.0,6.0,97,0.00,,---,0.00,VWS V14.01,2013-09-16 09:02:00,
2013-09-16 04:07:00,55.0,54.2,30.20,North,0,4.0,4.0,97,0.00,,---,0.00,VWS V14.01,2013-09-16 09:07:00,
2013-09-16 04:12:00,55.0,54.2,30.21,North,0,0.0,2.0,97,0.00,,---,0.00,VWS V14.01,2013-09-16 09:12:00,
2013-09-16 04:17:00,55.0,54.2,30.21,North,0,5.0,5.0,97,0.00,,---,0.00,VWS V14.01,2013-09-16 09:17:00,
2013-09-16 04:22:00,55.0,54.2,30.21,NNE,24,6.0,6.0,97,0.00,,---,0.00,VWS V14.01,2013-09-16 09:22:00,
2013-09-16 04:27:00,55.0,54.2,30.21,NE,37,3.0,3.0,97,0.00,,---,0.00,VWS V14.01,2013-09-16 09:27:00,
2013-09-16 04:32:00,55.0,54.2,30.21,NNE,25,7.0,7.0,97,0.00,,---,0.00,VWS V14.01,2013-09-16 09:32:00,
2013-09-16 04:37:00,55.0,54.2,30.21,NNE,28,5.0,5.0,97,0.00,,---,0.00,VWS V14.01,2013-09-16 09:37:00,
2013-09-16 04:42:00,55.0,54.2,30.22,North,6,2.0,2.0,97,0.00,,---,0.00,VWS V14.01,2013-09-16 09:42:00,
2013-09-16 04:47:00,55.1,54.3,30.22,NNE,21,5.0,7.0,97,0.00,,---,0.00,VWS V14.01,2013-09-16 09:47:00,
2013-09-16 04:52:00,55.1,54.3,30.22,NNE,27,5.0,5.0,97,0.00,,---,0.00,VWS V14.01,2013-09-16 09:52:00,
2013-09-16 04:57:00,55.1,54.3,30.22,North,8,4.0,4.0,97,0.00,,---,0.00,VWS V14.01,2013-09-16 09:57:00,
2013-09-16 05:02:00,55.1,54.3,30.22,NE,37,3.0,3.0,97,0.00,,---,0.00,VWS V14.01,2013-09-16 10:02:00,
2013-09-16 05:07:00,55.1,54.3,30.22,NE,44,0.0,3.0,97,0.00,,---,0.00,VWS V14.01,2013-09-16 10:07:00,
2013-09-16 05:12:00,55.1,54.3,30.22,NE,42,2.0,2.0,97,0.00,,---,0.00,VWS V14.01,2013-09-16 10:12:00,
2013-09-16 05:17:00,55.3,54.2,30.22,North,1,7.0,7.0,96,0.00,,---,0.00,VWS V14.01,2013-09-16 10:17:00,
2013-09-16 05:22:00,55.3,54.2,30.22,NNE,32,5.0,5.0,96,0.00,,---,0.00,VWS V14.01,2013-09-16 10:22:00,
2013-09-16 05:27:00,55.3,54.2,30.23,NE,55,7.0,7.0,96,0.00,,---,0.00,VWS V14.01,2013-09-16 10:27:00,
2013-09-16 05:32:00,54.7,53.6,30.23,North,0,8.0,8.0,96,0.00,,---,0.00,VWS V14.01,2013-09-16 10:32:00,
2013-09-16 05:37:00,54.5,53.4,30.23,ENE,58,2.0,9.0,96,0.00,,---,0.00,VWS V14.01,2013-09-16 10:37:00,
2013-09-16 05:42:00,54.2,53.1,30.25,NNE,25,10.0,10.0,96,0.00,,---,0.00,VWS V14.01,2013-09-16 10:42:00,
2013-09-16 05:47:00,54.2,53.1,30.25,NNE,32,10.0,10.0,96,0.00,,---,0.00,VWS V14.01,2013-09-16 10:47:00,
2013-09-16 05:52:00,53.9,52.2,30.25,ENE,76,7.0,7.0,94,0.00,,---,0.00,VWS V14.01,2013-09-16 10:52:00,
2013-09-16 05:57:00,53.9,52.2,30.25,NE,35,1.0,1.0,94,0.00,,---,0.00,VWS V14.01,2013-09-16 10:57:00,
2013-09-16 06:02:00,53.6,51.6,30.25,NE,38,10.0,10.0,93,0.00,,---,0.00,VWS V14.01,2013-09-16 11:02:00,
2013-09-16 06:07:00,53.5,51.5,30.25,NNE,13,0.0,0.0,93,0.00,,---,0.00,VWS V14.01,2013-09-16 11:07:00,
2013-09-16 06:12:00,53.3,51.3,30.25,NNE,13,0.0,0.0,93,0.00,,---,0.00,VWS V14.01,2013-09-16 11:12:00,
2013-09-16 06:17:00,53.3,51.3,30.25,NE,35,1.0,1.0,93,0.00,,---,0.00,VWS V14.01,2013-09-16 11:17:00,
2013-09-16 06:22:00,53.3,51.3,30.25,NE,34,3.0,3.0,93,0.00,,---,0.00,VWS V14.01,2013-09-16 11:22:00,
2013-09-16 06:27:00,53.1,51.1,30.26,NNE,30,5.0,5.0,93,0.00,,---,0.00,VWS V14.01,2013-09-16 11:27:00,
2013-09-16 06:32:00,53.1,51.1,30.26,NNE,28,5.0,5.0,93,0.00,,---,0.00,VWS V14.01,2013-09-16 11:32:00,
2013-09-16 06:37:00,53.1,51.1,30.26,NNE,18,3.0,3.0,93,0.00,,---,0.00,VWS V14.01,2013-09-16 11:37:00,
2013-09-16 06:42:00,52.9,50.9,30.27,NNE,28,1.0,1.0,93,0.00,,---,0.00,VWS V14.01,2013-09-16 11:42:00,
2013-09-16 06:47:00,52.9,50.9,30.27,NE,38,10.0,10.0,93,0.00,,---,0.00,VWS V14.01,2013-09-16 11:47:00,
2013-09-16 06:52:00,52.8,50.8,30.27,NNE,27,5.0,5.0,93,0.00,,---,0.00,VWS V14.01,2013-09-16 11:52:00,
2013-09-16 06:57:00,52.8,50.8,30.28,ENE,61,10.0,11.0,93,0.00,,---,0.00,VWS V14.01,2013-09-16 11:57:00,
2013-09-16 07:02:00,52.8,50.5,30.28,NE,35,6.0,6.0,92,0.00,,---,0.00,VWS V14.01,2013-09-16 12:02:00,
2013-09-16 07:07:00,52.8,50.5,30.28,NE,41,1.0,1.0,92,0.00,,---,0.00,VWS V14.01,2013-09-16 12:07:00,
2013-09-16 07:12:00,52.8,50.5,30.28,NNE,25,7.0,7.0,92,0.00,,---,0.00,VWS V14.01,2013-09-16 12:12:00,
2013-09-16 07:17:00,52.8,50.5,30.28,NNE,25,7.0,7.0,92,0.00,,---,0.00,VWS V14.01,2013-09-16 12:17:00,
2013-09-16 07:22:00,52.8,50.5,30.28,NNE,25,7.0,7.0,92,0.00,,---,0.00,VWS V14.01,2013-09-16 12:22:00,
2013-09-16 07:27:00,52.8,50.5,30.28,NNE,25,7.0,7.0,92,0.00,,---,0.00,VWS V14.01,2013-09-16 12:27:00,
2013-09-16 07:32:00,52.8,50.5,30.28,NNE,25,7.0,7.0,92,0.00,,---,0.00,VWS V14.01,2013-09-16 12:32:00,
2013-09-16 07:37:00,52.8,50.5,30.28,NNE,25,7.0,7.0,92,0.00,,---,0.00,VWS V14.01,2013-09-16 12:37:00,
2013-09-16 07:42:00,52.8,50.5,30.28,NNE,25,7.0,7.0,92,0.00,,---,0.00,VWS V14.01,2013-09-16 12:42:00,
2013-09-16 07:47:00,52.8,50.5,30.28,NNE,25,7.0,7.0,92,0.00,,---,0.00,VWS V14.01,2013-09-16 12:47:00,
2013-09-16 07:52:00,52.8,50.5,30.28,NNE,25,7.0,7.0,92,0.00,,---,0.00,VWS V14.01,2013-09-16 12:52:00,
2013-09-16 07:57:00,52.8,50.5,30.29,NNE,25,7.0,7.0,92,0.00,,---,0.00,VWS V14.01,2013-09-16 12:57:00,
2013-09-16 08:02:00,52.8,50.5,30.29,NNE,25,7.0,7.0,92,0.00,,---,0.00,VWS V14.01,2013-09-16 13:02:00,
2013-09-16 08:07:00,52.8,50.5,30.29,NNE,25,7.0,7.0,92,0.00,,---,0.00,VWS V14.01,2013-09-16 13:07:00,
2013-09-16 08:12:00,52.8,50.5,30.30,NNE,25,7.0,7.0,92,0.00,,---,0.00,VWS V14.01,2013-09-16 13:12:00,
2013-09-16 08:17:00,52.8,50.5,30.30,NNE,25,7.0,7.0,92,0.00,,---,0.00,VWS V14.01,2013-09-16 13:17:00,
2013-09-16 08:22:00,52.8,50.5,30.30,NNE,25,7.0,7.0,92,0.00,,---,0.00,VWS V14.01,2013-09-16 13:22:00,
2013-09-16 08:27:00,52.8,50.5,30.30,NNE,25,7.0,7.0,92,0.00,,---,0.00,VWS V14.01,2013-09-16 13:27:00,
2013-09-16 08:32:00,54.5,50.4,30.30,North,1,0.0,0.0,86,0.00,,---,0.00,VWS V14.01,2013-09-16 13:32:00,
2013-09-16 08:37:00,55.0,50.9,30.30,NNE,31,0.0,0.0,86,0.00,,---,0.00,VWS V14.01,2013-09-16 13:37:00,
2013-09-16 08:42:00,55.3,51.2,30.31,NNE,20,0.0,0.0,86,0.00,,---,0.00,VWS V14.01,2013-09-16 13:42:00,
2013-09-16 08:47:00,55.4,51.3,30.31,NNE,31,0.0,0.0,86,0.00,,---,0.00,VWS V14.01,2013-09-16 13:47:00,
2013-09-16 08:52:00,55.4,51.3,30.31,NNE,31,0.0,0.0,86,0.00,,---,0.00,VWS V14.01,2013-09-16 13:52:00,
2013-09-16 08:57:00,55.4,51.3,30.31,NNE,31,0.0,0.0,86,0.00,,---,0.00,VWS V14.01,2013-09-16 13:57:00,
2013-09-16 09:02:00,55.4,51.3,30.31,NNE,31,0.0,0.0,86,0.00,,---,0.00,VWS V14.01,2013-09-16 14:02:00,
2013-09-16 09:07:00,55.4,51.3,30.31,NNE,31,0.0,0.0,86,0.00,,---,0.00,VWS V14.01,2013-09-16 14:07:00,
2013-09-16 09:12:00,55.4,51.3,30.31,NNE,30,0.0,0.0,86,0.00,,---,0.00,VWS V14.01,2013-09-16 14:12:00,
2013-09-16 09:17:00,57.0,52.9,30.31,NNE,13,0.0,0.0,86,0.00,,---,0.00,VWS V14.01,2013-09-16 14:17:00,
2013-09-16 09:22:00,56.7,52.6,30.31,NE,41,0.0,0.0,86,0.00,,---,0.00,VWS V14.01,2013-09-16 14:22:00,
2013-09-16 09:27:00,56.7,52.6,30.31,NNE,20,0.0,0.0,86,0.00,,---,0.00,VWS V14.01,2013-09-16 14:27:00,
2013-09-16 09:32:00,56.7,52.6,30.31,NE,47,0.0,0.0,86,0.00,,---,0.00,VWS V14.01,2013-09-16 14:32:00,
2013-09-16 09:37:00,57.2,53.1,30.31,North,1,0.0,0.0,86,0.00,,---,0.00,VWS V14.01,2013-09-16 14:37:00,
2013-09-16 09:42:00,57.2,53.1,30.32,North,359,0.0,0.0,86,0.00,,---,0.00,VWS V14.01,2013-09-16 14:42:00,
2013-09-16 09:47:00,57.2,50.8,30.32,NE,34,0.0,0.0,79,0.00,,---,0.00,VWS V14.01,2013-09-16 14:47:00,
2013-09-16 09:52:00,57.2,50.8,30.32,NE,34,0.0,0.0,79,0.00,,---,0.00,VWS V14.01,2013-09-16 14:52:00,
2013-09-16 09:57:00,57.2,50.8,30.33,NNE,27,0.0,0.0,79,0.00,,---,0.00,VWS V14.01,2013-09-16 14:57:00,
2013-09-16 10:02:00,57.2,50.8,30.33,NNE,27,0.0,0.0,79,0.00,,---,0.00,VWS V14.01,2013-09-16 15:02:00,
2013-09-16 10:07:00,58.4,51.9,30.33,NNE,23,0.0,0.0,79,0.00,,---,0.00,VWS V14.01,2013-09-16 15:07:00,
2013-09-16 10:12:00,58.9,52.4,30.33,NNE,25,0.0,0.0,79,0.00,,---,0.00,VWS V14.01,2013-09-16 15:12:00,
2013-09-16 10:17:00,58.9,52.4,30.33,North,357,0.0,0.0,79,0.00,,---,0.00,VWS V14.01,2013-09-16 15:17:00,
2013-09-16 10:22:00,59.9,53.4,30.33,NNE,14,0.0,0.0,79,0.00,,---,0.00,VWS V14.01,2013-09-16 15:22:00,
2013-09-16 10:27:00,59.9,53.4,30.32,NNE,25,0.0,0.0,79,0.00,,---,0.00,VWS V14.01,2013-09-16 15:27:00,
2013-09-16 10:32:00,59.9,53.4,30.32,NNE,25,0.0,0.0,79,0.00,,---,0.00,VWS V14.01,2013-09-16 15:32:00,
2013-09-16 10:37:00,60.5,54.0,30.32,NE,42,0.0,0.0,79,0.00,,---,0.00,VWS V14.01,2013-09-16 15:37:00,
2013-09-16 10:42:00,60.5,54.0,30.33,NE,42,0.0,0.0,79,0.00,,---,0.00,VWS V14.01,2013-09-16 15:42:00,
2013-09-16 10:47:00,60.5,54.0,30.33,NE,42,0.0,0.0,79,0.00,,---,0.00,VWS V14.01,2013-09-16 15:47:00,
2013-09-16 10:52:00,61.3,52.6,30.33,NNE,32,0.0,0.0,73,0.00,,---,0.00,VWS V14.01,2013-09-16 15:52:00,
2013-09-16 10:57:00,61.8,52.7,30.32,ENE,64,0.0,0.0,72,0.00,,---,0.00,VWS V14.01,2013-09-16 15:57:00,
2013-09-16 11:02:00,62.7,53.5,30.32,North,7,0.0,0.0,72,0.00,,---,0.00,VWS V14.01,2013-09-16 16:02:00,
2013-09-16 11:07:00,63.1,53.9,30.32,NNE,24,0.0,0.0,72,0.00,,---,0.00,VWS V14.01,2013-09-16 16:07:00,
2013-09-16 11:12:00,63.1,52.8,30.32,NNE,30,0.0,0.0,69,0.00,,---,0.00,VWS V14.01,2013-09-16 16:12:00,
2013-09-16 11:17:00,63.1,52.8,30.32,NNE,25,0.0,0.0,69,0.00,,---,0.00,VWS V14.01,2013-09-16 16:17:00,
2013-09-16 11:22:00,62.7,52.4,30.32,NNE,24,0.0,0.0,69,0.00,,---,0.00,VWS V14.01,2013-09-16 16:22:00,
2013-09-16 11:27:00,62.7,52.8,30.32,NNE,24,0.0,0.0,70,0.00,,---,0.00,VWS V14.01,2013-09-16 16:27:00,
2013-09-16 11:32:00,63.9,53.9,30.32,ENE,69,0.0,0.0,70,0.00,,---,0.00,VWS V14.01,2013-09-16 16:32:00,
2013-09-16 11:37:00,63.9,53.9,30.32,ESE,107,0.0,0.0,70,0.00,,---,0.00,VWS V14.01,2013-09-16 16:37:00,
2013-09-16 11:42:00,65.0,55.0,30.31,ENE,71,0.0,0.0,70,0.00,,---,0.00,VWS V14.01,2013-09-16 16:42:00,
2013-09-16 11:47:00,65.5,55.5,30.31,North,0,0.0,0.0,70,0.00,,---,0.00,VWS V14.01,2013-09-16 16:47:00,
2013-09-16 11:52:00,66.0,56.0,30.31,North,3,0.0,0.0,70,0.00,,---,0.00,VWS V14.01,2013-09-16 16:52:00,
2013-09-16 11:57:00,66.4,56.3,30.31,North,0,0.0,0.0,70,0.00,,---,0.00,VWS V14.01,2013-09-16 16:57:00,
2013-09-16 12:02:00,66.6,56.5,30.31,NNE,32,0.0,0.0,70,0.00,,---,0.00,VWS V14.01,2013-09-16 17:02:00,
2013-09-16 12:07:00,66.6,56.5,30.31,NE,38,0.0,0.0,70,0.00,,---,0.00,VWS V14.01,2013-09-16 17:07:00,
2013-09-16 12:12:00,66.1,56.0,30.30,NE,49,0.0,0.0,70,0.00,,---,0.00,VWS V14.01,2013-09-16 17:12:00,
2013-09-16 12:17:00,66.3,56.2,30.30,NNW,346,0.0,0.0,70,0.00,,---,0.00,VWS V14.01,2013-09-16 17:17:00,
2013-09-16 12:22:00,66.3,56.2,30.30,NNW,346,0.0,0.0,70,0.00,,---,0.00,VWS V14.01,2013-09-16 17:22:00,
2013-09-16 12:27:00,67.4,57.3,30.30,East,89,0.0,0.0,70,0.00,,---,0.00,VWS V14.01,2013-09-16 17:27:00,
2013-09-16 12:32:00,67.4,57.3,30.30,NE,45,0.0,0.0,70,0.00,,---,0.00,VWS V14.01,2013-09-16 17:32:00,
2013-09-16 12:37:00,67.4,57.3,30.30,NNE,32,0.0,0.0,70,0.00,,---,0.00,VWS V14.01,2013-09-16 17:37:00,
2013-09-16 12:42:00,67.4,57.3,30.29,NE,44,0.0,0.0,70,0.00,,---,0.00,VWS V14.01,2013-09-16 17:42:00,
2013-09-16 12:47:00,67.4,57.3,30.29,NE,44,0.0,0.0,70,0.00,,---,0.00,VWS V14.01,2013-09-16 17:47:00,
2013-09-16 12:52:00,67.4,57.3,30.29,NE,44,0.0,0.0,70,0.00,,---,0.00,VWS V14.01,2013-09-16 17:52:00,
2013-09-16 12:57:00,67.4,57.3,30.31,NE,44,0.0,0.0,70,0.00,,---,0.00,VWS V14.01,2013-09-16 17:57:00,
2013-09-16 13:02:00,67.4,57.3,30.31,NE,44,0.0,0.0,70,0.00,,---,0.00,VWS V14.01,2013-09-16 18:02:00,
2013-09-16 13:07:00,67.4,57.3,30.31,NE,37,0.0,0.0,70,0.00,,---,0.00,VWS V14.01,2013-09-16 18:07:00,
2013-09-16 13:12:00,68.4,58.2,30.29,North,350,0.0,0.0,70,0.00,,---,0.00,VWS V14.01,2013-09-16 18:12:00,
2013-09-16 13:17:00,68.4,58.2,30.29,NNE,24,0.0,0.0,70,0.00,,---,0.00,VWS V14.01,2013-09-16 18:17:00,
2013-09-16 13:22:00,69.4,59.2,30.29,ENE,62,0.0,0.0,70,0.00,,---,0.00,VWS V14.01,2013-09-16 18:22:00,
2013-09-16 13:27:00,69.6,59.4,30.28,NNE,28,0.0,0.0,70,0.00,,---,0.00,VWS V14.01,2013-09-16 18:27:00,
2013-09-16 13:32:00,69.6,59.4,30.28,NNE,28,0.0,0.0,70,0.00,,---,0.00,VWS V14.01,2013-09-16 18:32:00,
2013-09-16 13:37:00,69.6,59.4,30.28,NNE,28,0.0,0.0,70,0.00,,---,0.00,VWS V14.01,2013-09-16 18:37:00,
2013-09-16 13:42:00,69.6,59.4,30.28,NNE,28,0.0,0.0,70,0.00,,---,0.00,VWS V14.01,2013-09-16 18:42:00,
2013-09-16 13:47:00,69.6,59.4,30.28,North,11,0.0,0.0,70,0.00,,---,0.00,VWS V14.01,2013-09-16 18:47:00,
2013-09-16 13:52:00,70.4,60.2,30.28,North,4,0.0,0.0,70,0.00,,---,0.00,VWS V14.01,2013-09-16 18:52:00,
2013-09-16 13:57:00,70.4,60.2,30.27,NE,41,0.0,0.0,70,0.00,,---,0.00,VWS V14.01,2013-09-16 18:57:00,
2013-09-16 14:02:00,70.4,60.2,30.27,NNE,24,0.0,0.0,70,0.00,,---,0.00,VWS V14.01,2013-09-16 19:02:00,
2013-09-16 14:07:00,70.4,60.2,30.27,East,89,0.0,0.0,70,0.00,,---,0.00,VWS V14.01,2013-09-16 19:07:00,
2013-09-16 14:12:00,70.4,60.2,30.28,East,89,0.0,0.0,70,0.00,,---,0.00,VWS V14.01,2013-09-16 19:12:00,
2013-09-16 14:17:00,72.0,61.7,30.28,ENE,76,0.0,0.0,70,0.00,,---,0.00,VWS V14.01,2013-09-16 19:17:00,
2013-09-16 14:22:00,71.3,61.0,30.28,SE,126,0.0,0.0,70,0.00,,---,0.00,VWS V14.01,2013-09-16 19:22:00,
2013-09-16 14:27:00,71.3,61.0,30.28,North,6,0.0,0.0,70,0.00,,---,0.00,VWS V14.01,2013-09-16 19:27:00,
2013-09-16 14:32:00,71.3,52.8,30.28,NNE,23,0.0,0.0,52,0.00,,---,0.00,VWS V14.01,2013-09-16 19:32:00,
2013-09-16 14:37:00,71.3,52.8,30.28,NNE,17,0.0,0.0,52,0.00,,---,0.00,VWS V14.01,2013-09-16 19:37:00,
2013-09-16 14:42:00,71.3,54.3,30.27,NE,34,0.0,0.0,55,0.00,,---,0.00,VWS V14.01,2013-09-16 19:42:00,
2013-09-16 14:47:00,71.1,52.1,30.27,NNE,21,0.0,0.0,51,0.00,,---,0.00,VWS V14.01,2013-09-16 19:47:00,
2013-09-16 14:52:00,71.8,52.2,30.27,NE,40,0.0,0.0,50,0.00,,---,0.00,VWS V14.01,2013-09-16 19:52:00,
2013-09-16 14:57:00,71.8,52.2,30.26,NNE,24,0.0,0.0,50,0.00,,---,0.00,VWS V14.01,2013-09-16 19:57:00,
2013-09-16 15:02:00,71.8,51.6,30.26,NE,49,0.0,0.0,49,0.00,,---,0.00,VWS V14.01,2013-09-16 20:02:00,
2013-09-16 15:07:00,72.0,51.8,30.26,NE,47,0.0,0.0,49,0.00,,---,0.00,VWS V14.01,2013-09-16 20:07:00,
2013-09-16 15:12:00,72.1,51.9,30.26,North,0,0.0,0.0,49,0.00,,---,0.00,VWS V14.01,2013-09-16 20:12:00,
2013-09-16 15:17:00,72.1,51.9,30.26,NE,34,0.0,0.0,49,0.00,,---,0.00,VWS V14.01,2013-09-16 20:17:00,
2013-09-16 15:22:00,72.1,51.9,30.26,NNE,28,0.0,0.0,49,0.00,,---,0.00,VWS V14.01,2013-09-16 20:22:00,
2013-09-16 15:27:00,72.1,50.2,30.26,ESE,117,0.0,0.0,46,0.00,,---,0.00,VWS V14.01,2013-09-16 20:27:00,
2013-09-16 15:32:00,72.1,50.2,30.26,NNE,20,0.0,0.0,46,0.00,,---,0.00,VWS V14.01,2013-09-16 20:32:00,
2013-09-16 15:37:00,72.0,50.1,30.26,NNE,30,0.0,0.0,46,0.00,,---,0.00,VWS V14.01,2013-09-16 20:37:00,
2013-09-16 15:42:00,71.8,49.9,30.26,NNE,28,0.0,0.0,46,0.00,,---,0.00,VWS V14.01,2013-09-16 20:42:00,
2013-09-16 15:47:00,72.0,50.1,30.26,East,92,0.0,0.0,46,0.00,,---,0.00,VWS V14.01,2013-09-16 20:47:00,
2013-09-16 15:52:00,72.0,50.1,30.26,East,92,0.0,0.0,46,0.00,,---,0.00,VWS V14.01,2013-09-16 20:52:00,
2013-09-16 15:57:00,72.3,50.4,30.25,NE,35,0.0,0.0,46,0.00,,---,0.00,VWS V14.01,2013-09-16 20:57:00,
2013-09-16 16:02:00,72.0,50.1,30.25,ESE,106,0.0,0.0,46,0.00,,---,0.00,VWS V14.01,2013-09-16 21:02:00,
2013-09-16 16:07:00,72.0,50.1,30.25,NE,42,0.0,0.0,46,0.00,,---,0.00,VWS V14.01,2013-09-16 21:07:00,
2013-09-16 16:12:00,71.8,49.9,30.25,NE,45,0.0,0.0,46,0.00,,---,0.00,VWS V14.01,2013-09-16 21:12:00,
2013-09-16 16:17:00,71.8,49.9,30.25,North,356,0.0,0.0,46,0.00,,---,0.00,VWS V14.01,2013-09-16 21:17:00,
2013-09-16 16:22:00,71.8,49.9,30.25,North,356,0.0,0.0,46,0.00,,---,0.00,VWS V14.01,2013-09-16 21:22:00,
2013-09-16 16:27:00,72.0,50.1,30.25,NNE,31,0.0,0.0,46,0.00,,---,0.00,VWS V14.01,2013-09-16 21:27:00,
2013-09-16 16:32:00,72.0,47.7,30.25,East,88,0.0,0.0,42,0.00,,---,0.00,VWS V14.01,2013-09-16 21:32:00,
2013-09-16 16:37:00,72.0,47.7,30.25,NE,35,0.0,0.0,42,0.00,,---,0.00,VWS V14.01,2013-09-16 21:37:00,
2013-09-16 16:42:00,71.6,47.3,30.25,East,79,0.0,0.0,42,0.00,,---,0.00,VWS V14.01,2013-09-16 21:42:00,
2013-09-16 16:47:00,71.6,47.3,30.25,NNE,28,0.0,0.0,42,0.00,,---,0.00,VWS V14.01,2013-09-16 21:47:00,
2013-09-16 16:52:00,71.5,48.5,30.25,ESE,112,0.0,0.0,44,0.00,,---,0.00,VWS V14.01,2013-09-16 21:52:00,
2013-09-16 16:57:00,70.9,47.9,30.24,ENE,64,0.0,0.0,44,0.00,,---,0.00,VWS V14.01,2013-09-16 21:57:00,
2013-09-16 17:02:00,70.8,47.8,30.24,ESE,104,0.0,0.0,44,0.00,,---,0.00,VWS V14.01,2013-09-16 22:02:00,
2013-09-16 17:07:00,70.8,47.8,30.24,ESE,104,0.0,0.0,44,0.00,,---,0.00,VWS V14.01,2013-09-16 22:07:00,
2013-09-16 17:12:00,70.8,47.8,30.26,ESE,104,0.0,0.0,44,0.00,,---,0.00,VWS V14.01,2013-09-16 22:12:00,
2013-09-16 17:17:00,70.8,47.8,30.26,ESE,104,0.0,0.0,44,0.00,,---,0.00,VWS V14.01,2013-09-16 22:17:00,
2013-09-16 17:22:00,70.8,47.8,30.26,ESE,104,0.0,0.0,44,0.00,,---,0.00,VWS V14.01,2013-09-16 22:22:00,
2013-09-16 17:27:00,68.4,45.7,30.26,East,97,0.0,0.0,44,0.00,,---,0.00,VWS V14.01,2013-09-16 22:27:00,
2013-09-16 17:32:00,68.3,47.3,30.26,East,90,0.0,0.0,47,0.00,,---,0.00,VWS V14.01,2013-09-16 22:32:00,
2013-09-16 17:37:00,68.1,46.6,30.26,NE,42,0.0,0.0,46,0.00,,---,0.00,VWS V14.01,2013-09-16 22:37:00,
2013-09-16 17:42:00,68.1,46.6,30.25,ENE,68,0.0,0.0,46,0.00,,---,0.00,VWS V14.01,2013-09-16 22:42:00,
2013-09-16 17:47:00,68.1,46.6,30.25,ENE,68,0.0,0.0,46,0.00,,---,0.00,VWS V14.01,2013-09-16 22:47:00,
2013-09-16 17:52:00,67.4,45.9,30.25,ESE,106,0.0,0.0,46,0.00,,---,0.00,VWS V14.01,2013-09-16 22:52:00,
2013-09-16 17:57:00,67.4,45.9,30.25,East,99,0.0,0.0,46,0.00,,---,0.00,VWS V14.01,2013-09-16 22:57:00,
2013-09-16 18:02:00,67.3,48.0,30.25,East,90,0.0,0.0,50,0.00,,---,0.00,VWS V14.01,2013-09-16 23:02:00,
2013-09-16 18:07:00,67.1,48.4,30.25,East,92,0.0,0.0,51,0.00,,---,0.00,VWS V14.01,2013-09-16 23:07:00,
2013-09-16 18:12:00,67.1,48.4,30.25,ENE,76,0.0,0.0,51,0.00,,---,0.00,VWS V14.01,2013-09-16 23:12:00,
2013-09-16 18:17:00,67.1,48.4,30.25,ENE,76,0.0,0.0,51,0.00,,---,0.00,VWS V14.01,2013-09-16 23:17:00,
2013-09-16 18:22:00,67.1,48.4,30.25,ENE,76,0.0,0.0,51,0.00,,---,0.00,VWS V14.01,2013-09-16 23:22:00,
2013-09-16 18:27:00,67.1,48.4,30.26,ENE,76,0.0,0.0,51,0.00,,---,0.00,VWS V14.01,2013-09-16 23:27:00,
2013-09-16 18:32:00,67.1,48.4,30.26,ENE,76,0.0,0.0,51,0.00,,---,0.00,VWS V14.01,2013-09-16 23:32:00,
2013-09-16 18:37:00,67.1,48.4,30.26,ENE,76,0.0,0.0,51,0.00,,---,0.00,VWS V14.01,2013-09-16 23:37:00,
2013-09-16 18:42:00,65.0,46.5,30.25,East,80,0.0,0.0,51,0.00,,---,0.00,VWS V14.01,2013-09-16 23:42:00,
2013-09-16 18:47:00,65.0,46.5,30.25,East,82,0.0,0.0,51,0.00,,---,0.00,VWS V14.01,2013-09-16 23:47:00,
2013-09-16 18:52:00,64.0,48.5,30.25,East,82,0.0,0.0,57,0.00,,---,0.00,VWS V14.01,2013-09-16 23:52:00,
2013-09-16 18:57:00,63.9,48.8,30.25,East,82,0.0,0.0,58,0.00,,---,0.00,VWS V14.01,2013-09-16 23:57:00,
2013-09-16 19:02:00,63.4,48.4,30.25,East,82,0.0,0.0,58,0.00,,---,0.00,VWS V14.01,2013-09-17 00:02:00,
2013-09-16 19:07:00,63.1,49.0,30.25,East,82,0.0,0.0,60,0.00,,---,0.00,VWS V14.01,2013-09-17 00:07:00,
2013-09-16 19:12:00,62.7,48.6,30.24,East,82,0.0,0.0,60,0.00,,---,0.00,VWS V14.01,2013-09-17 00:12:00,
2013-09-16 19:17:00,62.3,48.2,30.24,East,82,0.0,0.0,60,0.00,,---,0.00,VWS V14.01,2013-09-17 00:17:00,
2013-09-16 19:22:00,62.1,48.1,30.24,East,82,0.0,0.0,60,0.00,,---,0.00,VWS V14.01,2013-09-17 00:22:00,
2013-09-16 19:27:00,61.6,47.6,30.24,East,82,0.0,0.0,60,0.00,,---,0.00,VWS V14.01,2013-09-17 00:27:00,
2013-09-16 19:32:00,61.5,49.2,30.24,East,82,0.0,0.0,64,0.00,,---,0.00,VWS V14.01,2013-09-17 00:32:00,
2013-09-16 19:37:00,61.0,48.8,30.24,East,82,0.0,0.0,64,0.00,,---,0.00,VWS V14.01,2013-09-17 00:37:00,
2013-09-16 19:42:00,60.7,48.5,30.24,East,82,0.0,0.0,64,0.00,,---,0.00,VWS V14.01,2013-09-17 00:42:00,
2013-09-16 19:47:00,60.5,48.3,30.24,East,80,0.0,0.0,64,0.00,,---,0.00,VWS V14.01,2013-09-17 00:47:00,
2013-09-16 19:53:00,59.9,47.7,30.24,East,80,0.0,0.0,64,0.00,,---,0.00,VWS V14.01,2013-09-17 00:53:00,
2013-09-16 19:58:00,59.9,47.7,30.24,East,80,0.0,0.0,64,0.00,,---,0.00,VWS V14.01,2013-09-17 00:58:00,
2013-09-16 20:03:00,59.9,47.7,30.24,East,80,0.0,0.0,64,0.00,,---,0.00,VWS V14.01,2013-09-17 01:03:00,
2013-09-16 20:08:00,59.9,47.7,30.24,East,80,0.0,0.0,64,0.00,,---,0.00,VWS V14.01,2013-09-17 01:08:00,
2013-09-16 20:13:00,59.9,47.7,30.25,East,80,0.0,0.0,64,0.00,,---,0.00,VWS V14.01,2013-09-17 01:13:00,
2013-09-16 20:18:00,59.9,47.7,30.25,East,80,0.0,0.0,64,0.00,,---,0.00,VWS V14.01,2013-09-17 01:18:00,
2013-09-16 20:23:00,58.7,46.6,30.25,NE,48,0.0,0.0,64,0.00,,---,0.00,VWS V14.01,2013-09-17 01:23:00,
2013-09-16 20:28:00,58.7,46.6,30.25,NE,48,0.0,0.0,64,0.00,,---,0.00,VWS V14.01,2013-09-17 01:28:00,
2013-09-16 20:33:00,58.6,48.9,30.25,NE,48,0.0,0.0,70,0.00,,---,0.00,VWS V14.01,2013-09-17 01:33:00,
2013-09-16 20:38:00,58.4,48.7,30.25,NE,48,0.0,0.0,70,0.00,,---,0.00,VWS V14.01,2013-09-17 01:38:00,
2013-09-16 20:43:00,58.4,48.7,30.25,NE,48,0.0,0.0,70,0.00,,---,0.00,VWS V14.01,2013-09-17 01:43:00,
2013-09-16 20:48:00,58.4,48.7,30.25,NE,48,0.0,0.0,70,0.00,,---,0.00,VWS V14.01,2013-09-17 01:48:00,
2013-09-16 20:53:00,58.4,48.7,30.25,ENE,68,0.0,0.0,70,0.00,,---,0.00,VWS V14.01,2013-09-17 01:53:00,
2013-09-16 20:58:00,58.4,48.7,30.25,East,86,0.0,0.0,70,0.00,,---,0.00,VWS V14.01,2013-09-17 01:58:00,
2013-09-16 21:03:00,58.4,48.7,30.25,East,82,0.0,0.0,70,0.00,,---,0.00,VWS V14.01,2013-09-17 02:03:00,
2013-09-16 21:08:00,57.5,48.2,30.25,North,0,0.0,0.0,71,0.00,,---,0.00,VWS V14.01,2013-09-17 02:08:00,
2013-09-16 21:13:00,57.2,47.9,30.26,East,82,0.0,0.0,71,0.00,,---,0.00,VWS V14.01,2013-09-17 02:13:00,
2013-09-16 21:18:00,57.2,47.9,30.26,East,79,0.0,0.0,71,0.00,,---,0.00,VWS V14.01,2013-09-17 02:18:00,
2013-09-16 21:23:00,57.2,47.9,30.26,ESE,104,0.0,0.0,71,0.00,,---,0.00,VWS V14.01,2013-09-17 02:23:00,
2013-09-16 21:28:00,57.2,47.9,30.26,East,92,3.0,3.0,71,0.00,,---,0.00,VWS V14.01,2013-09-17 02:28:00,
2013-09-16 21:33:00,57.2,47.9,30.26,ESE,110,0.0,0.0,71,0.00,,---,0.00,VWS V14.01,2013-09-17 02:33:00,
2013-09-16 21:38:00,56.2,46.9,30.26,East,82,1.0,1.0,71,0.00,,---,0.00,VWS V14.01,2013-09-17 02:38:00,
2013-09-16 21:43:00,56.0,46.7,30.27,East,96,3.0,3.0,71,0.00,,---,0.00,VWS V14.01,2013-09-17 02:43:00,
2013-09-16 21:48:00,55.7,46.5,30.27,East,80,0.0,0.0,71,0.00,,---,0.00,VWS V14.01,2013-09-17 02:48:00,
2013-09-16 21:53:00,55.7,46.5,30.27,East,80,0.0,0.0,71,0.00,,---,0.00,VWS V14.01,2013-09-17 02:53:00,
2013-09-16 21:58:00,55.3,46.1,30.27,East,85,0.0,0.0,71,0.00,,---,0.00,VWS V14.01,2013-09-17 02:58:00,
2013-09-16 22:03:00,54.8,45.6,30.27,ENE,71,0.0,0.0,71,0.00,,---,0.00,VWS V14.01,2013-09-17 03:03:00,
2013-09-16 22:08:00,54.8,45.6,30.27,ENE,71,0.0,0.0,71,0.00,,---,0.00,VWS V14.01,2013-09-17 03:08:00,
2013-09-16 22:13:00,54.2,45.0,30.27,ENE,62,0.0,0.0,71,0.00,,---,0.00,VWS V14.01,2013-09-17 03:13:00,
2013-09-16 22:18:00,54.2,45.0,30.27,ENE,62,0.0,0.0,71,0.00,,---,0.00,VWS V14.01,2013-09-17 03:18:00,
2013-09-16 22:23:00,53.8,44.6,30.27,East,86,0.0,0.0,71,0.00,,---,0.00,VWS V14.01,2013-09-17 03:23:00,
2013-09-16 22:28:00,53.8,44.6,30.28,East,86,0.0,0.0,71,0.00,,---,0.00,VWS V14.01,2013-09-17 03:28:00,
2013-09-16 22:33:00,53.3,44.2,30.28,East,88,0.0,0.0,71,0.00,,---,0.00,VWS V14.01,2013-09-17 03:33:00,
2013-09-16 22:38:00,53.3,44.2,30.28,ESE,107,0.0,0.0,71,0.00,,---,0.00,VWS V14.01,2013-09-17 03:38:00,
2013-09-16 22:43:00,53.3,44.2,30.28,ESE,107,0.0,0.0,71,0.00,,---,0.00,VWS V14.01,2013-09-17 03:43:00,
2013-09-16 22:48:00,53.3,44.2,30.28,ESE,107,0.0,0.0,71,0.00,,---,0.00,VWS V14.01,2013-09-17 03:48:00,
2013-09-16 22:53:00,53.3,44.2,30.28,ESE,107,0.0,0.0,71,0.00,,---,0.00,VWS V14.01,2013-09-17 03:53:00,
2013-09-16 22:58:00,53.3,44.2,30.27,ESE,107,0.0,0.0,71,0.00,,---,0.00,VWS V14.01,2013-09-17 03:58:00,
2013-09-16 23:01:00,53.3,44.2,30.27,ESE,107,0.0,0.0,71,0.00,,---,0.00,VWS V14.01,2013-09-17 04:01:00,
2013-09-16 23:02:00,52.3,43.2,30.27,East,97,5.0,5.0,71,0.00,,---,0.00,VWS V14.01,2013-09-17 04:02:00,
2013-09-16 23:07:00,52.3,47.3,30.27,East,85,0.0,0.0,83,0.00,,---,0.00,VWS V14.01,2013-09-17 04:07:00,
2013-09-16 23:12:00,52.3,47.3,30.28,ESE,107,0.0,0.0,83,0.00,,---,0.00,VWS V14.01,2013-09-17 04:12:00,
2013-09-16 23:17:00,52.3,47.3,30.28,ESE,102,1.0,1.0,83,0.00,,---,0.00,VWS V14.01,2013-09-17 04:17:00,
2013-09-16 23:22:00,51.9,46.9,30.28,East,89,0.0,0.0,83,0.00,,---,0.00,VWS V14.01,2013-09-17 04:22:00,
2013-09-16 23:27:00,51.6,46.6,30.28,East,100,0.0,2.0,83,0.00,,---,0.00,VWS V14.01,2013-09-17 04:27:00,
2013-09-16 23:32:00,51.4,46.7,30.28,East,88,0.0,0.0,84,0.00,,---,0.00,VWS V14.01,2013-09-17 04:32:00,
2013-09-16 23:37:00,51.3,47.0,30.28,East,90,0.0,0.0,85,0.00,,---,0.00,VWS V14.01,2013-09-17 04:37:00,
2013-09-16 23:42:00,51.0,46.7,30.28,East,93,0.0,0.0,85,0.00,,---,0.00,VWS V14.01,2013-09-17 04:42:00,
2013-09-16 23:47:00,51.0,46.7,30.28,East,100,0.0,2.0,85,0.00,,---,0.00,VWS V14.01,2013-09-17 04:47:00,
2013-09-16 23:52:00,50.8,46.5,30.28,East,86,1.0,2.0,85,0.00,,---,0.00,VWS V14.01,2013-09-17 04:52:00,
2013-09-16 23:58:00,50.7,46.4,30.28,ENE,72,0.0,0.0,85,0.00,,---,0.00,VWS V14.01,2013-09-17 04:58:00,